This demonstration page uses our WeatherBlox Daily Observations layout. Learn more.

Left ArrowRight Arrow

Hourly Observations for November 18, 2020

Temp ( °F °C ) Dew Point ( °F °C ) Humidity (%) Winds ( mph kmh ) Pressure ( in mb ) Visibility ( mi km ) Precip ( " mm )
12:15 am 00:15 Clear 44 6.8 29 -1.7 55 55 SSE 10 17 30.08 1019 10 16 N/A
12:35 am 00:35 Clear 45 7.4 29 -1.7 53 53 S 8 13 30.08 1018 10 16 N/A
12:55 am 00:55 Clear 44 6.5 29 -1.8 56 56 S 12 19 30.06 1018 10 16 N/A
1:15 am 01:15 Clear 46 7.5 29 -1.9 52 52 S 13 20 30.05 1017 10 16 N/A
1:35 am 01:35 Clear 46 7.6 28 -2 51 51 S 13 20 30.03 1017 10 16 N/A
1:55 am 01:55 Clear 45 7.2 29 -1.9 53 53 S 15 24 30.03 1017 10 16 N/A
2:15 am 02:15 Clear 45 7.2 29 -1.7 54 54 S 14 22 30.03 1017 10 16 N/A
2:35 am 02:35 Clear 45 7.4 29 -1.6 53 53 SSW 12 19 30.03 1017 10 16 N/A
2:55 am 02:55 Clear 45 7.2 29 -1.5 54 54 S 16 26 30.02 1017 10 16 N/A
3:15 am 03:15 Clear 45 7.4 29 -1.4 54 54 S 16 26 30.02 1016 10 16 N/A
3:35 am 03:35 Clear 45 7.1 30 -1.3 56 56 S 17 28 30.00 1016 10 16 N/A
3:55 am 03:55 Clear 44 6.9 30 -1.3 56 56 S 15 24 29.99 1016 10 16 N/A
4:15 am 04:15 Clear 43 6.2 30 -1.2 59 59 S 10 17 29.99 1015 10 16 N/A
4:35 am 04:35 Clear 42 5.3 30 -1.2 63 63 S 6 9 30.00 1016 10 16 N/A
4:55 am 04:55 Clear 38 3.4 29 -1.9 69 69 S 6 9 30.01 1016 10 16 N/A
5:15 am 05:15 Clear 37 2.5 28 -2.1 72 72 SSE 5 7 30.00 1016 10 16 N/A
5:35 am 05:35 Clear 36 2.1 28 -2.1 74 74 SSE 3 6 30.00 1016 10 16 N/A
5:55 am 05:55 Clear 34 0.9 27 -2.9 76 76 SE 5 7 30.03 1017 10 16 N/A
6:15 am 06:15 Clear 34 1.1 27 -2.6 77 77 SE 3 6 30.02 1017 10 16 N/A
6:35 am 06:35 Clear 36 2 28 -2 75 75 S 8 13 30.01 1016 10 16 N/A
6:55 am 06:55 Clear 35 1.6 28 -2.2 76 76 S 7 11 30.01 1016 10 16 N/A
7:15 am 07:15 Clear 35 1.8 28 -2 76 76 S 12 19 30.00 1016 10 16 N/A
7:35 am 07:35 Sunny 38 3.2 29 -1.5 72 72 SSW 9 15 29.98 1015 10 16 N/A
7:55 am 07:55 Sunny 38 3.5 30 -1.1 72 72 SSW 8 13 29.98 1015 10 16 N/A
8:15 am 08:15 Sunny 40 4.4 31 -0.4 71 71 SSW 5 7 29.97 1015 10 16 N/A
8:35 am 08:35 Sunny 43 6.2 32 undefined 65 65 SSW 8 13 29.96 1014 10 16 N/A
8:55 am 08:55 Sunny 45 7 32 0.1 62 62 SSW 8 13 29.95 1014 10 16 N/A
9:15 am 09:15 Sunny 47 8.1 32 undefined 57 57 SW 10 17 29.94 1014 10 16 N/A
9:35 am 09:35 Sunny 46 7.6 31 -0.4 57 57 SSW 12 19 29.93 1014 10 16 N/A
9:55 am 09:55 Sunny 47 8.4 31 -0.5 54 54 SW 8 13 29.93 1013 10 16 N/A
10:15 am 10:15 Sunny 48 8.9 31 -0.8 51 51 SSW 10 17 29.93 1014 10 16 N/A
10:35 am 10:35 Sunny 50 10.1 30 -1.1 46 46 SW 10 17 29.92 1013 10 16 N/A
10:55 am 10:55 Sunny 52 11.2 31 -0.8 44 44 SSW 10 17 29.91 1013 10 16 N/A
11:15 am 11:15 Sunny 54 12.1 30 -1.2 40 40 SSW 9 15 29.88 1012 10 16 N/A
11:35 am 11:35 Sunny 58 14.3 29 -1.4 34 34 SW 10 17 29.87 1011 10 16 N/A
11:55 am 11:55 Sunny 58 14.2 29 -1.5 34 34 SW 13 20 29.87 1011 10 16 N/A
12:15 pm 12:15 Sunny 57 14 29 -1.4 35 35 SSW 12 19 29.85 1011 10 16 N/A
12:35 pm 12:35 Sunny 58 14.3 29 -1.5 34 34 SSW 10 17 29.85 1011 10 16 N/A
12:55 pm 12:55 Sunny 61 16 29 -1.5 30 30 SSW 13 20 29.82 1010 10 16 N/A
1:15 pm 13:15 Sunny 61 15.9 29 -1.8 30 30 SSW 10 17 29.81 1010 10 16 N/A
1:35 pm 13:35 Sunny 60 15.6 28 -2 30 30 SSW 14 22 29.81 1010 10 16 N/A
1:55 pm 13:55 Sunny 61 16.2 28 -2 29 29 SSW 14 22 29.81 1009 10 16 N/A
2:15 pm 14:15 Sunny 63 17.2 28 -2.3 26 26 S 14 22 29.79 1009 10 16 N/A
2:35 pm 14:35 Sunny 63 17.3 28 -2 27 27 S 13 20 29.78 1008 10 16 N/A
2:55 pm 14:55 Sunny 64 17.9 29 -1.7 26 26 SSW 15 24 29.78 1008 10 16 N/A
3:15 pm 15:15 Sunny 66 18.7 29 -1.7 25 25 S 15 24 29.77 1008 10 16 N/A
3:35 pm 15:35 Sunny 67 19.5 29 -1.8 24 24 SSW 14 22 29.75 1008 10 16 N/A
3:55 pm 15:55 Sunny 66 18.8 30 -1.2 26 26 S 10 17 29.76 1008 10 16 N/A
4:15 pm 16:15 Sunny 66 18.8 31 -0.5 27 27 S 9 15 29.75 1007 10 16 N/A
4:35 pm 16:35 Sunny 65 18.5 32 -0.1 29 29 S 8 13 29.75 1007 10 16 N/A
4:55 pm 16:55 Sunny 64 17.8 32 undefined 30 30 S 8 13 29.75 1007 10 16 N/A
5:15 pm 17:15 Sunny 62 16.7 32 0.1 33 33 S 7 11 29.77 1008 10 16 N/A
5:35 pm 17:35 Clear 60 15.6 33 0.4 36 36 S 6 9 29.76 1008 10 16 N/A
5:55 pm 17:55 Clear 59 15.1 35 1.7 41 41 S 7 11 29.78 1008 10 16 N/A
6:15 pm 18:15 Clear 60 15.6 38 3.2 44 44 S 9 15 29.77 1008 10 16 N/A
6:35 pm 18:35 Clear 60 15.7 38 3.6 45 45 S 9 15 29.75 1008 10 16 N/A
6:55 pm 18:55 Clear 58 14.5 39 4 50 50 S 10 17 29.76 1008 10 16 N/A
7:15 pm 19:15 Clear 58 14.7 40 4.7 51 51 S 13 20 29.75 1008 10 16 N/A
7:35 pm 19:35 Clear 58 14.6 41 5 53 53 S 13 20 29.75 1008 10 16 N/A
7:55 pm 19:55 Clear 59 14.9 41 5.1 52 52 S 12 19 29.76 1008 10 16 N/A
8:15 pm 20:15 Clear 59 14.8 41 5 52 52 S 12 19 29.75 1007 10 16 N/A
8:35 pm 20:35 Clear 57 13.7 40 4.5 54 54 S 12 19 29.74 1007 10 16 N/A
8:55 pm 20:55 Clear 57 13.7 40 4.2 53 53 S 13 20 29.74 1007 10 16 N/A
9:15 pm 21:15 Clear 55 13 39 3.8 54 54 S 10 17 29.76 1008 10 16 N/A
9:35 pm 21:35 Clear 55 13 38 3.5 53 53 S 10 17 29.76 1008 10 16 N/A
9:55 pm 21:55 Clear 55 12.5 38 3.2 53 53 S 8 13 29.76 1008 10 16 N/A
10:15 pm 22:15 Clear 53 11.5 37 3 56 56 S 10 17 29.76 1008 10 16 N/A
10:35 pm 22:35 Clear 54 12 37 3 54 54 S 13 20 29.76 1008 10 16 N/A
10:55 pm 22:55 Clear 54 12.2 37 3 54 54 S 9 15 29.74 1007 10 16 N/A
11:15 pm 23:15 Clear 54 12 37 2.8 54 54 SSW 12 19 29.75 1007 10 16 N/A
11:35 pm 23:35 Clear 53 11.7 37 2.8 55 55 SSW 13 20 29.74 1007 10 16 N/A
11:55 pm 23:55 Clear 54 12 37 3 54 54 SSW 14 22 29.75 1007 10 16 N/A

Powered by AerisWeather